TimeEST,TemperatureF,Dew PointF,Humidity,Sea Level PressureIn,VisibilityMPH,Wind Direction,Wind SpeedMPH,Gust SpeedMPH,PrecipitationIn,Events,Conditions,WindDirDegrees,DateUTC
12:15 AM,7.3,4.5,88,30.37,10.0,Calm,Calm,-,N/A,,Clear,0,2014-01-08 05:15:00
12:35 AM,7.2,4.5,89,30.37,10.0,Calm,Calm,-,N/A,,Clear,0,2014-01-08 05:35:00
12:55 AM,7.7,4.5,87,30.37,10.0,Calm,Calm,-,N/A,,Clear,0,2014-01-08 05:55:00
1:15 AM,7.5,3.9,85,30.38,10.0,Calm,Calm,-,N/A,,Clear,0,2014-01-08 06:15:00
1:35 AM,7.0,4.5,89,30.39,10.0,Calm,Calm,-,N/A,,Clear,0,2014-01-08 06:35:00
1:55 AM,7.2,4.8,90,30.39,10.0,Calm,Calm,-,N/A,,Clear,0,2014-01-08 06:55:00
2:15 AM,7.0,4.6,90,30.39,10.0,Calm,Calm,-,N/A,,Clear,0,2014-01-08 07:15:00
2:35 AM,6.4,4.1,90,30.39,10.0,Calm,Calm,-,N/A,,Clear,0,2014-01-08 07:35:00
2:55 AM,7.3,4.6,89,30.41,10.0,NNW,3.5,-,N/A,,Clear,340,2014-01-08 07:55:00
3:15 AM,8.1,3.9,83,30.42,10.0,Calm,Calm,-,N/A,,Clear,0,2014-01-08 08:15:00
3:35 AM,7.3,3.9,86,30.42,10.0,Calm,Calm,-,N/A,,Clear,0,2014-01-08 08:35:00
3:55 AM,6.8,3.7,87,30.43,10.0,Calm,Calm,-,N/A,,Clear,0,2014-01-08 08:55:00
4:15 AM,7.0,4.1,88,30.42,10.0,Calm,Calm,-,N/A,,Clear,0,2014-01-08 09:15:00
4:35 AM,7.0,4.1,88,30.42,10.0,Calm,Calm,-,N/A,,Clear,0,2014-01-08 09:35:00
4:55 AM,7.0,4.5,89,30.43,10.0,Calm,Calm,-,N/A,,Clear,0,2014-01-08 09:55:00
5:15 AM,7.3,4.3,87,30.43,10.0,Calm,Calm,-,N/A,,Clear,0,2014-01-08 10:15:00
5:35 AM,7.0,4.5,89,30.43,10.0,Calm,Calm,-,N/A,,Clear,0,2014-01-08 10:35:00
5:55 AM,7.3,4.3,87,30.43,10.0,Calm,Calm,-,N/A,,Clear,0,2014-01-08 10:55:00
6:15 AM,7.5,4.1,86,30.43,10.0,Calm,Calm,-,N/A,,Clear,0,2014-01-08 11:15:00
6:35 AM,7.5,4.5,87,30.44,10.0,Calm,Calm,-,N/A,,Clear,0,2014-01-08 11:35:00
6:55 AM,7.3,4.1,87,30.44,10.0,Calm,Calm,-,N/A,,Clear,0,2014-01-08 11:55:00
7:15 AM,6.8,4.1,89,30.44,10.0,Calm,Calm,-,N/A,,Clear,0,2014-01-08 12:15:00
7:35 AM,7.3,4.1,87,30.45,10.0,Calm,Calm,-,N/A,,Clear,0,2014-01-08 12:35:00
7:55 AM,7.7,4.1,85,30.46,10.0,Calm,Calm,-,N/A,,Clear,0,2014-01-08 12:55:00
8:15 AM,9.0,5.2,85,30.47,10.0,Calm,Calm,-,N/A,,Clear,0,2014-01-08 13:15:00
8:35 AM,10.4,5.9,82,30.47,10.0,Calm,Calm,-,N/A,,Clear,0,2014-01-08 13:35:00
8:55 AM,12.2,7.5,82,30.48,10.0,Calm,Calm,-,N/A,,Clear,0,2014-01-08 13:55:00
9:15 AM,15.3,7.2,70,30.48,10.0,Calm,Calm,-,N/A,,Clear,0,2014-01-08 14:15:00
9:35 AM,17.6,8.2,67,30.48,10.0,SSE,3.5,-,N/A,,Clear,160,2014-01-08 14:35:00
9:55 AM,19.2,9.1,65,30.50,10.0,Calm,Calm,-,N/A,,Clear,0,2014-01-08 14:55:00
10:15 AM,19.9,8.2,61,30.50,10.0,Calm,Calm,-,N/A,,Clear,0,2014-01-08 15:15:00
10:35 AM,20.8,9.3,61,30.49,10.0,SSE,3.5,-,N/A,,Clear,160,2014-01-08 15:35:00
10:55 AM,22.1,9.1,58,30.49,10.0,Calm,Calm,-,N/A,,Clear,0,2014-01-08 15:55:00
11:15 AM,23.5,10.4,57,30.49,10.0,Calm,Calm,-,N/A,,Clear,0,2014-01-08 16:15:00
11:35 AM,25.9,11.7,55,30.49,10.0,Calm,Calm,-,N/A,,Clear,0,2014-01-08 16:35:00
11:55 AM,28.0,14.0,56,30.48,10.0,WSW,3.5,-,N/A,,Clear,240,2014-01-08 16:55:00
12:15 PM,29.5,15.3,55,30.46,10.0,SSW,3.5,-,N/A,,Clear,210,2014-01-08 17:15:00
12:35 PM,32.0,14.9,49,30.44,10.0,WNW,6.9,-,N/A,,Clear,290,2014-01-08 17:35:00
12:55 PM,32.4,13.6,46,30.43,10.0,WSW,6.9,-,N/A,,Clear,250,2014-01-08 17:55:00
1:15 PM,33.6,13.5,44,30.42,10.0,West,6.9,-,N/A,,Clear,260,2014-01-08 18:15:00
1:35 PM,34.5,13.8,43,30.41,10.0,West,6.9,-,N/A,,Clear,270,2014-01-08 18:35:00
1:55 PM,34.7,13.5,42,30.41,10.0,WSW,3.5,-,N/A,,Clear,250,2014-01-08 18:55:00
2:15 PM,35.6,14.4,42,30.41,10.0,WSW,6.9,-,N/A,,Clear,240,2014-01-08 19:15:00
2:35 PM,35.6,14.2,42,30.41,10.0,WSW,9.2,-,N/A,,Clear,240,2014-01-08 19:35:00
2:55 PM,36.0,13.3,39,30.41,10.0,West,8.1,-,N/A,,Clear,270,2014-01-08 19:55:00
3:15 PM,37.0,14.7,40,30.42,10.0,WNW,6.9,-,N/A,,Clear,290,2014-01-08 20:15:00
3:35 PM,37.4,15.3,41,30.41,10.0,West,3.5,-,N/A,,Clear,260,2014-01-08 20:35:00
3:55 PM,37.4,15.4,41,30.42,10.0,West,6.9,-,N/A,,Clear,260,2014-01-08 20:55:00
4:15 PM,36.5,16.3,44,30.42,10.0,WSW,8.1,-,N/A,,Clear,240,2014-01-08 21:15:00
4:35 PM,35.8,16.5,46,30.42,10.0,WSW,5.8,-,N/A,,Clear,250,2014-01-08 21:35:00
4:55 PM,35.6,15.6,44,30.42,10.0,WSW,5.8,-,N/A,,Scattered Clouds,240,2014-01-08 21:55:00
5:15 PM,34.5,15.4,46,30.42,10.0,West,4.6,-,N/A,,Clear,260,2014-01-08 22:15:00
5:35 PM,33.6,14.7,46,30.42,10.0,SW,4.6,-,N/A,,Clear,230,2014-01-08 22:35:00
5:55 PM,33.1,14.4,46,30.41,10.0,Calm,Calm,-,N/A,,Clear,0,2014-01-08 22:55:00
6:15 PM,32.0,16.2,52,30.41,10.0,Calm,Calm,-,N/A,,Clear,0,2014-01-08 23:15:00
6:35 PM,31.1,16.5,55,30.41,10.0,North,3.5,-,N/A,,Clear,350,2014-01-08 23:35:00
6:55 PM,29.3,19.0,66,30.42,10.0,Calm,Calm,-,N/A,,Clear,0,2014-01-08 23:55:00
7:15 PM,29.3,17.1,60,30.42,10.0,Calm,Calm,-,N/A,,Clear,0,2014-01-09 00:15:00
7:35 PM,28.8,16.7,61,30.42,10.0,ESE,3.5,-,N/A,,Clear,110,2014-01-09 00:35:00
7:55 PM,27.7,18.1,67,30.42,10.0,Calm,Calm,-,N/A,,Clear,0,2014-01-09 00:55:00
8:15 PM,28.4,17.1,63,30.42,10.0,Calm,Calm,-,N/A,,Clear,0,2014-01-09 01:15:00
8:35 PM,26.6,17.4,68,30.42,10.0,Calm,Calm,-,N/A,,Clear,0,2014-01-09 01:35:00
8:55 PM,27.3,17.2,66,30.43,10.0,Calm,Calm,-,N/A,,Clear,0,2014-01-09 01:55:00
9:15 PM,25.9,17.6,71,30.43,10.0,Calm,Calm,-,N/A,,Clear,0,2014-01-09 02:15:00
9:35 PM,26.1,17.8,71,30.42,10.0,Calm,Calm,-,N/A,,Clear,0,2014-01-09 02:35:00
9:55 PM,26.4,17.2,68,30.42,10.0,Calm,Calm,-,N/A,,Clear,0,2014-01-09 02:55:00
10:15 PM,25.2,17.6,73,30.42,10.0,East,3.5,-,N/A,,Clear,90,2014-01-09 03:15:00
10:35 PM,26.1,17.1,69,30.42,10.0,Calm,Calm,-,N/A,,Clear,0,2014-01-09 03:35:00
10:55 PM,26.6,17.2,68,30.42,10.0,Calm,Calm,-,N/A,,Clear,0,2014-01-09 03:55:00
11:15 PM,27.0,16.7,65,30.42,10.0,Calm,Calm,-,N/A,,Clear,0,2014-01-09 04:15:00
11:35 PM,25.3,18.3,75,30.42,10.0,Calm,Calm,-,N/A,,Clear,0,2014-01-09 04:35:00
11:55 PM,26.1,18.5,73,30.42,10.0,Calm,Calm,-,N/A,,Clear,0,2014-01-09 04:55:00